Hermiston, OR

6:49 PM PST on November 21, 2017 (GMT -0800)
Hermiston Municipal

Weather History for KHRI - December, 2012

Change the Weather History Date:

Sunday, December 2, 2012

  Actual Average Record
Temperature  
Mean Temperature 46 °F 35 °F  
Max Temperature 53 °F 42 °F 70 °F (1941)
Min Temperature 39 °F 28 °F -5 °F (1985)
Degree Days  
Heating Degree Days 19    
Moisture  
Dew Point 38 °F    
Average Humidity 72    
Maximum Humidity 97    
Minimum Humidity 47    
Precipitation  
Precipitation 0.30 in 0.04 in 0.34 in (1980)
Month to date precipitation 0.07  
Year to date precipitation 9.18  
Sea Level Pressure  
Sea Level Pressure 29.55 in    
Wind  
Wind Speed 9 mph (SW)    
Max Wind Speed 24 mph    
Max Gust Speed 33 mph    
Visibility 10 miles    
Events Rain    
T = Trace of Precipitation, MM = Missing Value Source: NWS Daily Summary

Daily Weather History Graph

Daily Weather History Graph

Search for Another Location

Airport or City:

Trip Planner

Search our weather history database for the weather conditions in past years. The results will help you decide how hot, cold, wet, or windy it might be!

Date:

Astronomy

Dec. 02, 2012 Rise Set
Actual Time 7:19 AM PST 4:13 PM PST
Civil Twilight 6:45 AM PST 4:47 PM PST
Nautical Twilight 6:08 AM PST 5:24 PM PST
Astronomical Twilight 5:32 AM PST 6:00 PM PST
Moon 8:11 PM PST (12/2) 10:07 AM PST (12/2)
Length of Visible Light 10h 01m
Length of Day
8h 53m
Waning Gibbous, 85% of the Moon is Illuminated
Dec 2
Waning Gibbous
Dec 6
Last Quarter
Dec 13
New
Dec 19
First Quarter
Dec 28
Full

Hourly Weather History & Observations

Time (PST) Temp. Windchill Dew Point Humidity Pressure Visibility Wind Dir Wind Speed Gust Speed Precip Events Conditions
12:53 AM 48.0 °F - 45.0 °F 89% 29.36 in 9.0 mi ESE 6.9 mph - 0.09 in Rain Rain
1:53 AM 48.0 °F - 46.0 °F 93% 29.27 in 10.0 mi East 6.9 mph - 0.14 in Rain Rain
2:53 AM 48.0 °F - 46.0 °F 93% 29.24 in 10.0 mi NE 4.6 mph - 0.04 in Rain Light Rain
3:53 AM 46.9 °F - 46.0 °F 97% 29.22 in 10.0 mi West 4.6 mph - 0.02 in Rain Light Rain
4:53 AM 46.9 °F - 45.0 °F 93% 29.20 in 10.0 mi South 6.9 mph - 0.01 in   Partly Cloudy
5:53 AM 46.9 °F - 45.0 °F 93% 29.26 in 10.0 mi West 8.1 mph - 0.00 in Rain Light Rain
6:53 AM 46.9 °F - 44.1 °F 90% 29.31 in 10.0 mi West 11.5 mph - 0.00 in   Overcast
7:53 AM 46.0 °F 41.0 °F 43.0 °F 89% 29.33 in 10.0 mi WSW 10.4 mph - N/A   Clear
8:53 AM 43.0 °F - 41.0 °F 93% 29.39 in 10.0 mi Calm Calm - N/A   Clear
9:53 AM 48.9 °F - 39.9 °F 71% 29.47 in 10.0 mi WSW 13.8 mph 25.3 mph N/A   Partly Cloudy
10:53 AM 51.1 °F - 37.9 °F 61% 29.51 in 10.0 mi WSW 24.2 mph 33.4 mph N/A   Clear
11:53 AM 53.1 °F - 37.0 °F 55% 29.55 in 10.0 mi WSW 19.6 mph 27.6 mph N/A   Partly Cloudy
12:53 PM 53.1 °F - 36.0 °F 52% 29.57 in 10.0 mi West 17.3 mph 27.6 mph N/A   Clear
1:53 PM 53.1 °F - 36.0 °F 52% 29.61 in 10.0 mi West 13.8 mph 21.9 mph N/A   Clear
2:53 PM 53.1 °F - 36.0 °F 52% 29.65 in 10.0 mi West 9.2 mph 21.9 mph N/A   Clear
3:53 PM 53.1 °F - 33.1 °F 47% 29.69 in 10.0 mi SW 10.4 mph 20.7 mph N/A   Clear
4:53 PM 48.0 °F - 33.1 °F 56% 29.75 in 10.0 mi South 5.8 mph - N/A   Mostly Cloudy
5:53 PM 46.0 °F 41.0 °F 33.1 °F 61% 29.76 in 10.0 mi SW 10.4 mph - N/A   Clear
6:53 PM 48.0 °F - 32.0 °F 54% 29.78 in 10.0 mi SW 15.0 mph - N/A   Clear
7:53 PM 46.9 °F - 33.1 °F 59% 29.81 in 10.0 mi WSW 10.4 mph - N/A   Clear
8:53 PM 43.0 °F 41.3 °F 32.0 °F 65% 29.84 in 10.0 mi SSE 3.5 mph - N/A   Clear
9:53 PM 43.0 °F 39.5 °F 32.0 °F 65% 29.86 in 10.0 mi South 5.8 mph - N/A   Mostly Cloudy
10:53 PM 39.0 °F - 32.0 °F 76% 29.89 in 10.0 mi Calm Calm - N/A   Partly Cloudy
11:53 PM 46.9 °F - 34.0 °F 61% 29.90 in 10.0 mi SW 6.9 mph - N/A   Scattered Clouds